Terminal Aerodrome Forecast
Issued by NWS

Home | Current Version | Previous Version | Text Only | Print | Product List | Glossary On
Versions: 1 2 3 4 5 6 7 8 9 10 11 12 13 14 15 16 17 18 19 20 21 22 23 24 25
000
FTUS43 KLSX 231900 AAA
TAFCPS
TAF AMD
KCPS 231950Z 2320/2418 15010KT 3SM -RA BR OVC008
      TEMPO 2320/2322 1 1/2SM RA BR
     FM232200 18008KT 3SM -RA BR OVC008
     FM240800 26014KT 4SM -RA BR OVC008
     FM241200 28018G28KT P6SM OVC015=

USA.gov is the U.S. government's official web portal to all federal, state and local government web resources and services.